Find Kosmos-2355

NORAD ID: 25366 Int'l Des: 1998-036 Owner: VKSR Country: RU operational
LEOPOLAR

Live Position

Loading 3D Globe...

About Kosmos-2355

Description loading...

Upcoming Passes

Passes for default location (London). Set your location on the main map for personalized predictions.

Altitude History

Loading altitude history...

Two-Line Element Set

1 25366U 98036D 26106.53693478 -.00000005 00000-0 -99015-4 0 9993
2 25366 82.5934 17.4223 0353235 325.4610 209.4685 12.21821726241492
Epoch: Apr 16, 2026 • Age: 17 hours

Current Status

Altitude 1648.1 km
Velocity 7.03 km/s
Sub-Earth Point 65.64°N, 98.81°E
Launch Date Jun 15, 1998
Age 27.8 years
Type other

Technical Details

Classification Payload
Mass 225.00 kg
Dry Mass 225.00 kg
Total Mass 225.00 kg
Length 1.60 m
Diameter 0.80 m
Span 7.00 m
Shape Cyl + Ant
Manufacturer NPOPMR
Bus Type Strela-3
Phase Status In Orbit
Owner/State VKSR/RU

Most Searched